Racine, WI

3:35 AM CDT on June 28, 2017 (GMT -0500)
Batten

Weather History for KRAC - February, 2013

Change the Weather History Date:

Friday, February 8, 2013

  Actual Average Record
Temperature  
Mean Temperature 24 °F -  
Max Temperature 26 °F 28 °F 49 °F (1987)
Min Temperature 19 °F 13 °F -14 °F (1951)
Degree Days  
Heating Degree Days 42    
Moisture  
Dew Point 21 °F    
Average Humidity 88    
Maximum Humidity 93    
Minimum Humidity 84    
Precipitation  
Precipitation 0.00 in - - ()
Sea Level Pressure  
Sea Level Pressure 30.24 in    
Wind  
Wind Speed 15 mph (NW)    
Max Wind Speed 21 mph    
Max Gust Speed 31 mph    
Visibility 8 miles    
Events Snow    
Averages and records for this station are not official NWS values.
T = Trace of Precipitation, MM = Missing Value Source: NWS Daily Summary

Daily Weather History Graph

Daily Weather History Graph

Search for Another Location

Airport or City:

Trip Planner

Search our weather history database for the weather conditions in past years. The results will help you decide how hot, cold, wet, or windy it might be!

Date:

Astronomy

Feb. 08, 2013 Rise Set
Actual Time 6:57 AM CST 5:14 PM CST
Civil Twilight 6:27 AM CST 5:43 PM CST
Nautical Twilight 5:54 AM CST 6:17 PM CST
Astronomical Twilight 5:21 AM CST 6:49 PM CST
Moon 5:26 AM CST (2/8) 3:46 PM CST (2/8)
Length of Visible Light 11h 15m
Length of Day
10h 16m
Waning Crescent, 3% of the Moon is Illuminated
Feb 8
Waning Crescent
Feb 10
New
Feb 17
First Quarter
Feb 25
Full
Mar 4
Last Quarter

Hourly Weather History & Observations

Time (CST) Temp. Windchill Dew Point Humidity Pressure Visibility Wind Dir Wind Speed Gust Speed Precip Events Conditions
12:53 AM 26.1 °F 12.0 °F 23.0 °F 88% 30.02 in 1.8 mi North 20.7 mph 25.3 mph 0.00 in Snow Light Snow
1:24 AM 26.6 °F 13.1 °F 24.8 °F 93% 29.99 in 2.0 mi North 19.6 mph - 0.00 in Snow Light Snow
1:53 AM 26.1 °F 12.0 °F 24.1 °F 92% 30.04 in 2.5 mi North 20.7 mph 31.1 mph 0.00 in Snow Light Snow
2:01 AM 26.6 °F 14.7 °F 24.8 °F 93% 30.02 in 3.0 mi NNW 15.0 mph 31.1 mph 0.00 in Snow Light Snow
2:36 AM 24.8 °F 11.5 °F 23.0 °F 93% 30.05 in 2.5 mi NNW 17.3 mph 26.5 mph 0.00 in Snow Light Snow
2:53 AM 25.0 °F 11.7 °F 21.9 °F 88% 30.08 in 2.0 mi NNW 17.3 mph 23.0 mph 0.00 in Snow Light Snow
3:13 AM 24.8 °F 11.9 °F 21.2 °F 86% 30.06 in 2.0 mi NNW 16.1 mph 24.2 mph 0.00 in Snow Light Snow
3:46 AM 24.8 °F 12.4 °F 21.2 °F 86% 30.07 in 4.0 mi NNW 15.0 mph 24.2 mph 0.00 in Snow Light Snow
3:53 AM 24.1 °F 10.6 °F 21.0 °F 88% 30.10 in 7.0 mi NNW 17.3 mph 23.0 mph 0.00 in Snow Light Snow
4:17 AM 24.8 °F 11.9 °F 21.2 °F 86% 30.09 in 10.0 mi North 16.1 mph 23.0 mph 0.00 in   Overcast
4:53 AM 24.1 °F 11.0 °F 21.0 °F 88% 30.14 in 10.0 mi North 16.1 mph 24.2 mph 0.00 in   Overcast
5:53 AM 25.0 °F 11.3 °F 21.9 °F 88% 30.18 in 10.0 mi NNW 18.4 mph 27.6 mph N/A   Overcast
6:53 AM 24.1 °F 11.5 °F 21.0 °F 88% 30.22 in 10.0 mi NNW 15.0 mph 25.3 mph N/A   Overcast
7:53 AM 24.1 °F 12.5 °F 21.0 °F 88% 30.25 in 10.0 mi NNW 12.7 mph - N/A   Overcast
8:53 AM 24.1 °F 12.0 °F 21.0 °F 88% 30.27 in 10.0 mi NNW 13.8 mph - N/A   Overcast
9:53 AM 24.1 °F 13.1 °F 21.0 °F 88% 30.31 in 9.0 mi NNW 11.5 mph - N/A   Overcast
10:53 AM 24.1 °F 13.7 °F 21.0 °F 88% 30.33 in 10.0 mi NW 10.4 mph - N/A   Overcast
11:53 AM 25.0 °F 17.1 °F 21.9 °F 88% 30.33 in 10.0 mi NNW 6.9 mph - N/A   Overcast
12:53 PM 25.0 °F 14.8 °F 21.0 °F 85% 30.34 in 10.0 mi NW 10.4 mph - N/A   Overcast
1:53 PM 25.0 °F 15.5 °F 21.0 °F 85% 30.35 in 10.0 mi NW 9.2 mph - N/A   Overcast
2:53 PM 26.1 °F 18.4 °F 21.9 °F 84% 30.36 in 10.0 mi NW 6.9 mph - N/A   Overcast
3:36 PM 24.8 °F 16.9 °F 21.2 °F 86% 30.33 in 10.0 mi NW 6.9 mph - N/A   Overcast
3:53 PM 25.0 °F 17.1 °F 21.0 °F 85% 30.37 in 9.0 mi NNW 6.9 mph - N/A   Overcast
4:53 PM 24.1 °F 16.0 °F 19.9 °F 84% 30.39 in 10.0 mi North 6.9 mph - N/A   Overcast
5:53 PM 23.0 °F 15.8 °F 19.0 °F 85% 30.40 in 10.0 mi NW 5.8 mph - N/A   Overcast
6:53 PM 23.0 °F 17.0 °F 19.0 °F 85% 30.40 in 10.0 mi West 4.6 mph - N/A   Overcast
7:53 PM 21.9 °F 15.7 °F 19.0 °F 89% 30.41 in 10.0 mi WNW 4.6 mph - N/A   Overcast
8:53 PM 21.9 °F 15.7 °F 19.0 °F 89% 30.43 in 9.0 mi WNW 4.6 mph - N/A   Overcast
9:53 PM 21.9 °F 15.7 °F 19.0 °F 89% 30.43 in 9.0 mi West 4.6 mph - N/A   Overcast
10:53 PM 21.0 °F 14.6 °F 18.0 °F 88% 30.41 in 9.0 mi West 4.6 mph - N/A   Overcast
11:53 PM 19.9 °F 11.1 °F 17.1 °F 89% 30.42 in 9.0 mi West 6.9 mph - N/A   Overcast